Terug naar catalogus

DELTA 1 DEB

ActiefLEO
NORAD 18232·DEBRIS·🇺🇸 United States

Gelanceerd Jul 29, 1976 vanaf Vandenberg Space Force Base

Loading…

Volgende Passages (komende 24 uur)

TLE

VersSource: Space-Track

Epoch: Sep 14, 2026, 11:32 UTC

1 18232U 76077EY  26257.48117704  .00013188  00000-0  71378-2 0  9996
2 18232 102.9334 175.2010 0200059 133.5772 284.4099 14.03031749 40552

Volg DELTA 1 DEB in realtime met AllMySat

Download on the App Store